DW4714 Weather Reports


Display with metric or nautical units.
time (UTC)temp
F
wind
direction
speed
MPH
gust
MPH
rain 1hr
in
rain 24hr
in
rain mn
in
humidity
%
barometer
mb
20260506013737 72 176 0.0 0.0 0.00 0.01 0.01 32 1005.1
20260506012717 72 180 0.0 3.0 0.00 0.01 0.01 33 1005.1
20260506011717 72 193 0.0 0.0 0.00 0.01 0.01 32 1004.9
20260506010717 73 169 0.0 0.0 0.00 0.01 0.01 32 1004.8
20260506005717 73 203 0.0 2.0 0.00 0.01 0.01 32 1004.7
20260506004717 73 194 0.0 0.0 0.00 0.01 0.01 31 1004.5
20260506003717 74 180 0.0 2.0 0.00 0.01 0.01 30 1004.4
20260506002717 75 225 0.0 1.0 0.00 0.01 0.01 30 1004.3
20260506001717 75 203 2.0 5.0 0.00 0.01 0.01 30 1004.3
20260506000717 76 171 0.0 0.0 0.00 0.01 0.01 29 1004.2
20260505235717 76 203 6.0 10.0 0.00 0.01 0.01 28 1004.1
20260505234716 76 203 2.0 5.0 0.00 0.01 0.01 28 1004.0
20260505233737 76 180 1.0 4.0 0.00 0.01 0.01 28 1004.0
20260505232737 77 180 1.0 5.0 0.00 0.01 0.01 28 1003.8
20260505231742 77 203 7.0 17.0 0.00 0.01 0.01 27 1004.0
20260505230757 77 180 2.0 5.0 0.00 0.01 0.01 26 1003.8
20260505225717 77 203 4.0 8.0 0.00 0.01 0.01 26 1003.7
20260505224716 77 203 2.0 6.0 0.00 0.01 0.01 26 1003.4
20260505223717 78 225 1.0 3.0 0.00 0.01 0.01 25 1003.5
20260505222717 78 180 0.0 2.0 0.00 0.01 0.01 26 1003.5
20260505221717 78 203 2.0 6.0 0.00 0.01 0.01 25 1003.5
20260505220716 79 203 4.0 7.0 0.00 0.01 0.01 24 1003.4
20260505215717 79 203 10.0 19.0 0.00 0.01 0.01 24 1003.3
20260505214737 79 248 2.0 4.0 0.00 0.01 0.01 25 1003.3
20260505213717 79 203 7.0 15.0 0.00 0.01 0.01 24 1003.3
20260505212721 80 203 5.0 15.0 0.00 0.01 0.01 25 1003.2
20260505211717 80 203 6.0 12.0 0.00 0.01 0.01 24 1003.1
20260505210717 81 203 7.0 15.0 0.00 0.01 0.01 24 1003.1
20260505205717 82 203 3.0 6.0 0.00 0.01 0.01 24 1003.0
20260505204717 83 180 7.0 13.0 0.00 0.01 0.01 23 1003.1
20260505203757 83 203 7.0 14.0 0.00 0.01 0.01 24 1003.0
20260505202716 83 225 4.0 8.0 0.00 0.01 0.01 22 1003.1
20260505201716 83 225 8.0 16.0 0.00 0.01 0.01 20 1003.1
20260505200717 83 203 12.0 22.0 0.00 0.01 0.01 17 1003.2
20260505195716 83 225 6.0 10.0 0.00 0.01 0.01 17 1003.3
20260505194756 83 203 6.0 11.0 0.00 0.01 0.01 17 1003.5
20260505193716 83 203 8.0 15.0 0.00 0.01 0.01 18 1003.6
20260505192717 83 225 5.0 12.0 0.00 0.01 0.01 18 1003.7
20260505191716 83 203 8.0 13.0 0.00 0.01 0.01 20 1003.8
20260505190716 83 203 9.0 18.0 0.00 0.01 0.01 20 1004.0
20260505185736 82 203 10.0 31.0 0.00 0.01 0.01 17 1004.1
20260505184716 82 248 9.0 18.0 0.00 0.01 0.01 18 1004.2
20260505183716 83 225 17.0 27.0 0.00 0.01 0.01 17 1004.3
20260505182736 83 293 3.0 8.0 0.00 0.01 0.01 21 1004.2
20260505181736 83 203 13.0 23.0 0.00 0.01 0.01 21 1004.4
20260505180716 82 180 7.0 19.0 0.00 0.01 0.01 26 1004.5
20260505175716 82 203 7.0 13.0 0.00 0.01 0.01 24 1004.7
20260505174716 81 203 7.0 11.0 0.00 0.01 0.01 27 1004.8
20260505173716 81 203 9.0 15.0 0.00 0.01 0.01 26 1005.0
20260505172716 81 225 11.0 22.0 0.00 0.01 0.01 26 1005.1
20260505171716 80 225 5.0 10.0 0.00 0.01 0.01 29 1005.0
20260505170716 81 180 6.0 11.0 0.00 0.01 0.01 27 1005.1
20260505165716 80 203 6.0 10.0 0.00 0.01 0.01 28 1005.1
20260505164736 80 203 9.0 14.0 0.00 0.01 0.01 29 1005.2
20260505163741 80 180 6.0 14.0 0.00 0.01 0.01 31 1005.4
20260505162716 79 180 7.0 16.0 0.00 0.01 0.01 32 1005.7
20260505161716 79 225 7.0 14.0 0.00 0.01 0.01 31 1005.8
20260505160716 78 225 2.0 5.0 0.00 0.01 0.01 33 1005.8
20260505152736 75 248 8.0 12.0 0.00 0.01 0.01 34 1006.4
20260505151716 75 225 11.0 19.0 0.00 0.01 0.01 36 1006.4
20260505150716 74 203 4.0 7.0 0.00 0.01 0.01 39 1006.5
20260505124718 61 203 1.0 5.0 0.00 0.01 0.01 60 1007.0
20260505123718 59 148 0.0 0.0 0.00 0.01 0.01 61 1007.1
20260505122718 58 180 0.0 0.0 0.00 0.01 0.01 65 1007.0
20260505121718 56 181 0.0 0.0 0.00 0.01 0.01 71 1007.1
20260505120718 55 299 0.0 0.0 0.00 0.01 0.01 71 1007.1
20260505115717 55 339 0.0 0.0 0.00 0.01 0.01 71 1007.2
20260505114717 54 12 0.0 0.0 0.00 0.01 0.01 70 1006.8
20260505113718 53 12 0.0 0.0 0.00 0.01 0.01 68 1006.8
20260505112717 53 12 0.0 0.0 0.00 0.01 0.01 67 1006.8
20260505111717 52 12 0.0 0.0 0.00 0.01 0.01 67 1006.6
20260505110717 52 12 0.0 0.0 0.01 0.01 0.01 66 1006.7
20260505101717 53 12 0.0 0.0 0.01 0.01 0.01 64 1006.5
20260505100737 53 12 0.0 0.0 0.00 0.00 0.00 64 1006.2
20260505095737 54 12 0.0 0.0 0.00 0.00 0.00 64 1006.0
20260505094717 54 12 0.0 0.0 0.00 0.00 0.00 64 1006.0
20260505093717 54 34 0.0 0.0 0.00 0.00 0.00 65 1006.0
20260505092718 54 30 0.0 0.0 0.00 0.00 0.00 64 1006.4
20260505091717 54 153 0.0 0.0 0.00 0.00 0.00 63 1006.3
20260505090717 53 203 1.0 3.0 0.00 0.00 0.00 62 1006.9
20260505085717 53 203 2.0 5.0 0.00 0.00 0.00 61 1006.9
20260505084737 51 203 3.0 5.0 0.00 0.00 0.00 60 1006.9
20260505083737 52 232 0.0 0.0 0.00 0.00 0.00 59 1006.4
20260505082717 52 231 0.0 0.0 0.00 0.00 0.00 58 1006.2
20260505081717 52 231 0.0 0.0 0.00 0.00 0.00 56 1006.2
20260505080717 53 231 0.0 0.0 0.00 0.00 0.00 56 1006.1
20260505075717 53 231 0.0 0.0 0.00 0.00 0.00 55 1006.0
20260505074717 54 232 0.0 0.0 0.00 0.00 0.00 55 1006.0
20260505073717 54 231 0.0 0.0 0.00 0.00 0.00 53 1006.1
20260505072717 55 230 0.0 0.0 0.00 0.00 0.00 53 1006.2
20260505071717 55 229 0.0 0.0 0.00 0.00 0.00 51 1006.1
20260505070717 55 229 0.0 0.0 0.00 0.00 0.00 51 1006.1
20260505065717 55 229 0.0 0.0 0.00 0.00 0.00 51 1006.1
20260505064717 55 223 0.0 0.0 0.00 0.00 0.00 51 1006.1
20260505063717 54 224 0.0 0.0 0.00 0.00 0.00 53 1006.1
20260505062717 53 232 0.0 0.0 0.00 0.00 0.00 54 1006.2
20260505061717 53 223 0.0 0.0 0.00 0.00 0.00 55 1006.3
20260505060737 53 223 0.0 0.0 0.00 0.00 0.00 55 1006.2
20260505055716 52 248 0.0 2.0 0.00 0.00 0.00 56 1006.3
20260505054717 52 240 0.0 0.0 0.00 0.00 0.00 57 1006.2
20260505053717 51 240 0.0 0.0 0.00 0.00 0.00 58 1006.2
20260505052717 51 240 0.0 4.0 0.00 0.00 0.00 58 1006.3
20260505051716 51 265 0.0 0.0 0.00 0.00 0.00 58 1006.2
20260505050716 51 265 0.0 0.0 0.00 0.00 0.00 57 1006.1
20260505041717 53 155 0.0 0.0 0.00 0.00 0.00 53 1006.0
20260505040736 53 155 0.0 0.0 0.00 0.00 0.00 52 1006.0
20260505035717 54 155 0.0 0.0 0.00 0.00 0.00 51 1006.0
20260505034737 54 155 0.0 0.0 0.00 0.00 0.00 50 1005.9
20260505033717 55 155 0.0 0.0 0.00 0.00 0.00 49 1006.0
20260505032737 55 155 0.0 0.0 0.00 0.00 0.00 49 1006.1
20260505031717 56 155 0.0 0.0 0.00 0.00 0.00 47 1006.1
20260505030717 57 155 0.0 0.0 0.00 0.00 0.00 47 1006.3
20260505025717 57 155 0.0 0.0 0.00 0.00 0.00 45 1006.3
20260505024757 58 155 0.0 0.0 0.00 0.00 0.00 44 1006.2
20260505023717 58 155 0.0 0.0 0.00 0.00 0.00 43 1006.2
20260505022717 59 155 0.0 0.0 0.00 0.00 0.00 42 1006.4
20260505021737 59 155 0.0 0.0 0.00 0.00 0.00 42 1006.4
20260505020717 60 155 0.0 0.0 0.00 0.00 0.00 40 1006.3
20260505015717 61 155 0.0 0.0 0.00 0.00 0.00 40 1006.3
20260505014717 61 155 0.0 0.0 0.00 0.00 0.00 38 1006.3